Year,Month,Day,Hour,Minute,Value (Times are PST for insolation in W/m^2)
2008,12,22,00,00,0.00
2008,12,22,00,01,0.00
2008,12,22,00,02,0.00
2008,12,22,00,03,0.00
2008,12,22,00,04,0.00
2008,12,22,00,05,0.00
2008,12,22,00,06,0.00
2008,12,22,00,07,0.00
2008,12,22,00,08,0.00
2008,12,22,00,09,0.00
2008,12,22,00,10,0.00
2008,12,22,00,11,0.00
2008,12,22,00,12,0.00
2008,12,22,00,13,0.00
2008,12,22,00,14,0.00
2008,12,22,00,15,0.00
2008,12,22,00,16,0.00
2008,12,22,00,17,0.00
2008,12,22,00,18,0.00
2008,12,22,00,19,0.00
2008,12,22,00,20,0.00
2008,12,22,00,21,0.00
2008,12,22,00,22,0.00
2008,12,22,00,23,0.00
2008,12,22,00,24,0.00
2008,12,22,00,25,0.00
2008,12,22,00,26,0.00
2008,12,22,00,27,0.00
2008,12,22,00,28,0.00
2008,12,22,00,29,0.00
2008,12,22,00,30,0.00
2008,12,22,00,31,0.00
2008,12,22,00,32,0.00
2008,12,22,00,33,0.00
2008,12,22,00,34,0.00
2008,12,22,00,35,0.00
2008,12,22,00,36,0.00
2008,12,22,00,37,0.00
2008,12,22,00,38,0.00
2008,12,22,00,39,0.00
2008,12,22,00,40,0.00
2008,12,22,00,41,0.00
2008,12,22,00,42,0.00
2008,12,22,00,43,0.00
2008,12,22,00,44,0.00
2008,12,22,00,45,0.00
2008,12,22,00,46,0.00
2008,12,22,00,47,0.00
2008,12,22,00,48,0.00
2008,12,22,00,49,0.00
2008,12,22,00,50,0.00
2008,12,22,00,51,0.00
2008,12,22,00,52,0.00
2008,12,22,00,53,0.00
2008,12,22,00,54,0.00
2008,12,22,00,55,0.00
2008,12,22,00,56,0.00
2008,12,22,00,57,0.00
2008,12,22,00,58,0.00
2008,12,22,00,59,0.00
2008,12,22,01,00,0.00
2008,12,22,01,01,0.00
2008,12,22,01,02,0.00
2008,12,22,01,03,0.00
2008,12,22,01,04,0.00
2008,12,22,01,05,0.00
2008,12,22,01,06,0.00
2008,12,22,01,07,0.00
2008,12,22,01,08,0.00
2008,12,22,01,09,0.00
2008,12,22,01,10,0.00
2008,12,22,01,11,0.00
2008,12,22,01,12,0.00
2008,12,22,01,13,0.00
2008,12,22,01,14,0.00
2008,12,22,01,15,0.00
2008,12,22,01,16,0.00
2008,12,22,01,17,0.00
2008,12,22,01,18,0.00
2008,12,22,01,19,0.00
2008,12,22,01,20,0.00
2008,12,22,01,21,0.00
2008,12,22,01,22,0.00
2008,12,22,01,23,0.00
2008,12,22,01,24,0.00
2008,12,22,01,25,0.00
2008,12,22,01,26,0.00
2008,12,22,01,27,0.00
2008,12,22,01,28,0.00
2008,12,22,01,29,0.00
2008,12,22,01,30,0.00
2008,12,22,01,31,0.00
2008,12,22,01,32,0.00
2008,12,22,01,33,0.00
2008,12,22,01,34,0.00
2008,12,22,01,35,0.00
2008,12,22,01,36,0.00
2008,12,22,01,37,0.00
2008,12,22,01,38,0.00
2008,12,22,01,39,0.00
2008,12,22,01,40,0.00
2008,12,22,01,41,0.00
2008,12,22,01,42,0.00
2008,12,22,01,43,0.00
2008,12,22,01,44,0.00
2008,12,22,01,45,0.00
2008,12,22,01,46,0.00
2008,12,22,01,47,0.00
2008,12,22,01,48,0.00
2008,12,22,01,49,0.00
2008,12,22,01,50,0.00
2008,12,22,01,51,0.00
2008,12,22,01,52,0.00
2008,12,22,01,53,0.00
2008,12,22,01,54,0.00
2008,12,22,01,55,0.00
2008,12,22,01,56,0.00
2008,12,22,01,57,0.00
2008,12,22,01,58,0.00
2008,12,22,01,59,0.00
2008,12,22,02,00,0.00
2008,12,22,02,01,0.00
2008,12,22,02,02,0.00
2008,12,22,02,03,0.00
2008,12,22,02,04,0.00
2008,12,22,02,05,0.00
2008,12,22,02,06,0.00
2008,12,22,02,07,0.00
2008,12,22,02,08,0.00
2008,12,22,02,09,0.00
2008,12,22,02,10,0.00
2008,12,22,02,11,0.00
2008,12,22,02,12,0.00
2008,12,22,02,13,0.00
2008,12,22,02,14,0.00
2008,12,22,02,15,0.00
2008,12,22,02,16,0.00
2008,12,22,02,17,0.00
2008,12,22,02,18,0.00
2008,12,22,02,19,0.00
2008,12,22,02,20,0.00
2008,12,22,02,21,0.00
2008,12,22,02,22,0.00
2008,12,22,02,23,0.00
2008,12,22,02,24,0.00
2008,12,22,02,25,0.00
2008,12,22,02,26,0.00
2008,12,22,02,27,0.00
2008,12,22,02,28,0.00
2008,12,22,02,29,0.00
2008,12,22,02,30,0.00
2008,12,22,02,31,0.00
2008,12,22,02,32,0.00
2008,12,22,02,33,0.00
2008,12,22,02,34,0.00
2008,12,22,02,35,0.00
2008,12,22,02,36,0.00
2008,12,22,02,37,0.00
2008,12,22,02,38,0.00
2008,12,22,02,39,0.00
2008,12,22,02,40,0.00
2008,12,22,02,41,0.00
2008,12,22,02,42,0.00
2008,12,22,02,43,0.00
2008,12,22,02,44,0.00
2008,12,22,02,45,0.00
2008,12,22,02,46,0.00
2008,12,22,02,47,0.00
2008,12,22,02,48,0.00
2008,12,22,02,49,0.00
2008,12,22,02,50,0.00
2008,12,22,02,51,0.00
2008,12,22,02,52,0.00
2008,12,22,02,53,0.00
2008,12,22,02,54,0.00
2008,12,22,02,55,0.00
2008,12,22,02,56,0.00
2008,12,22,02,57,0.00
2008,12,22,02,58,0.00
2008,12,22,02,59,0.00
2008,12,22,03,00,0.00
2008,12,22,03,01,0.00
2008,12,22,03,02,0.00
2008,12,22,03,03,0.00
2008,12,22,03,04,0.00
2008,12,22,03,05,0.00
2008,12,22,03,06,0.00
2008,12,22,03,07,0.00
2008,12,22,03,08,0.00
2008,12,22,03,09,0.00
2008,12,22,03,10,0.00
2008,12,22,03,11,0.00
2008,12,22,03,12,0.00
2008,12,22,03,13,0.00
2008,12,22,03,14,0.00
2008,12,22,03,15,0.00
2008,12,22,03,16,0.00
2008,12,22,03,17,0.00
2008,12,22,03,18,0.00
2008,12,22,03,19,0.00
2008,12,22,03,20,0.00
2008,12,22,03,21,0.00
2008,12,22,03,22,0.00
2008,12,22,03,23,0.00
2008,12,22,03,24,0.00
2008,12,22,03,25,0.00
2008,12,22,03,26,0.00
2008,12,22,03,27,0.00
2008,12,22,03,28,0.00
2008,12,22,03,29,0.00
2008,12,22,03,30,0.00
2008,12,22,03,31,0.00
2008,12,22,03,32,0.00
2008,12,22,03,33,0.00
2008,12,22,03,34,0.00
2008,12,22,03,35,0.00
2008,12,22,03,36,0.00
2008,12,22,03,37,0.00
2008,12,22,03,38,0.00
2008,12,22,03,39,0.00
2008,12,22,03,40,0.00
2008,12,22,03,41,0.00
2008,12,22,03,42,0.00
2008,12,22,03,43,0.00
2008,12,22,03,44,0.00
2008,12,22,03,45,0.00
2008,12,22,03,46,0.00
2008,12,22,03,47,0.00
2008,12,22,03,48,0.00
2008,12,22,03,49,0.00
2008,12,22,03,50,0.00
2008,12,22,03,51,0.00
2008,12,22,03,52,0.00
2008,12,22,03,53,0.00
2008,12,22,03,54,0.00
2008,12,22,03,55,0.00
2008,12,22,03,56,0.00
2008,12,22,03,57,0.00
2008,12,22,03,58,0.00
2008,12,22,03,59,0.00
2008,12,22,04,00,0.00
2008,12,22,04,01,0.00
2008,12,22,04,02,0.00
2008,12,22,04,03,0.00
2008,12,22,04,04,0.00
2008,12,22,04,05,0.00
2008,12,22,04,06,0.00
2008,12,22,04,07,0.00
2008,12,22,04,08,0.00
2008,12,22,04,09,0.00
2008,12,22,04,10,0.00
2008,12,22,04,11,0.00
2008,12,22,04,12,0.00
2008,12,22,04,13,0.00
2008,12,22,04,14,0.00
2008,12,22,04,15,0.00
2008,12,22,04,16,0.00
2008,12,22,04,17,0.00
2008,12,22,04,18,0.00
2008,12,22,04,19,0.00
2008,12,22,04,20,0.00
2008,12,22,04,21,0.00
2008,12,22,04,22,0.00
2008,12,22,04,23,0.00
2008,12,22,04,24,0.00
2008,12,22,04,25,0.00
2008,12,22,04,26,0.00
2008,12,22,04,27,0.00
2008,12,22,04,28,0.00
2008,12,22,04,29,0.00
2008,12,22,04,30,0.00
2008,12,22,04,31,0.00
2008,12,22,04,32,0.00
2008,12,22,04,33,0.00
2008,12,22,04,34,0.00
2008,12,22,04,35,0.00
2008,12,22,04,36,0.00
2008,12,22,04,37,0.00
2008,12,22,04,38,0.00
2008,12,22,04,39,0.00
2008,12,22,04,40,0.00
2008,12,22,04,41,0.00
2008,12,22,04,42,0.00
2008,12,22,04,43,0.00
2008,12,22,04,44,0.00
2008,12,22,04,45,0.00
2008,12,22,04,46,0.00
2008,12,22,04,47,0.00
2008,12,22,04,48,0.00
2008,12,22,04,49,0.00
2008,12,22,04,50,0.00
2008,12,22,04,51,0.00
2008,12,22,04,52,0.00
2008,12,22,04,53,0.00
2008,12,22,04,54,0.00
2008,12,22,04,55,0.00
2008,12,22,04,56,0.00
2008,12,22,04,57,0.00
2008,12,22,04,58,0.00
2008,12,22,04,59,0.00
2008,12,22,05,00,0.00
2008,12,22,05,01,0.00
2008,12,22,05,02,0.00
2008,12,22,05,03,0.00
2008,12,22,05,04,0.00
2008,12,22,05,05,0.00
2008,12,22,05,06,0.00
2008,12,22,05,07,0.00
2008,12,22,05,08,0.00
2008,12,22,05,09,0.00
2008,12,22,05,10,0.00
2008,12,22,05,11,0.00
2008,12,22,05,12,0.00
2008,12,22,05,13,0.00
2008,12,22,05,14,0.00
2008,12,22,05,15,0.00
2008,12,22,05,16,0.00
2008,12,22,05,17,0.00
2008,12,22,05,18,0.00
2008,12,22,05,19,0.00
2008,12,22,05,20,0.00
2008,12,22,05,21,0.00
2008,12,22,05,22,0.00
2008,12,22,05,23,0.00
2008,12,22,05,24,0.00
2008,12,22,05,25,0.00
2008,12,22,05,26,0.00
2008,12,22,05,27,0.00
2008,12,22,05,28,0.00
2008,12,22,05,29,0.00
2008,12,22,05,30,0.00
2008,12,22,05,31,0.00
2008,12,22,05,32,0.00
2008,12,22,05,33,0.00
2008,12,22,05,34,0.00
2008,12,22,05,35,0.00
2008,12,22,05,36,0.00
2008,12,22,05,37,0.00
2008,12,22,05,38,0.00
2008,12,22,05,39,0.00
2008,12,22,05,40,0.00
2008,12,22,05,41,0.00
2008,12,22,05,42,0.00
2008,12,22,05,43,0.00
2008,12,22,05,44,0.00
2008,12,22,05,45,0.00
2008,12,22,05,46,0.00
2008,12,22,05,47,0.00
2008,12,22,05,48,0.00
2008,12,22,05,49,0.00
2008,12,22,05,50,0.00
2008,12,22,05,51,0.00
2008,12,22,05,52,0.00
2008,12,22,05,53,0.00
2008,12,22,05,54,0.00
2008,12,22,05,55,0.00
2008,12,22,05,56,0.00
2008,12,22,05,57,0.00
2008,12,22,05,58,0.00
2008,12,22,05,59,0.00
2008,12,22,06,00,0.00
2008,12,22,06,01,0.00
2008,12,22,06,02,0.00
2008,12,22,06,03,0.00
2008,12,22,06,04,0.00
2008,12,22,06,05,0.00
2008,12,22,06,06,0.00
2008,12,22,06,07,0.00
2008,12,22,06,08,0.00
2008,12,22,06,09,0.00
2008,12,22,06,10,0.00
2008,12,22,06,11,0.00
2008,12,22,06,12,0.00
2008,12,22,06,13,0.00
2008,12,22,06,14,0.00
2008,12,22,06,15,0.00
2008,12,22,06,16,0.00
2008,12,22,06,17,0.00
2008,12,22,06,18,0.00
2008,12,22,06,19,0.00
2008,12,22,06,20,0.00
2008,12,22,06,21,0.00
2008,12,22,06,22,0.00
2008,12,22,06,23,0.00
2008,12,22,06,24,0.00
2008,12,22,06,25,0.00
2008,12,22,06,26,0.00
2008,12,22,06,27,0.00
2008,12,22,06,28,0.00
2008,12,22,06,29,0.00
2008,12,22,06,30,0.00
2008,12,22,06,31,0.00
2008,12,22,06,32,0.00
2008,12,22,06,33,0.00
2008,12,22,06,34,0.00
2008,12,22,06,35,0.00
2008,12,22,06,36,0.00
2008,12,22,06,37,0.00
2008,12,22,06,38,0.00
2008,12,22,06,39,0.00
2008,12,22,06,40,0.00
2008,12,22,06,41,0.00
2008,12,22,06,42,0.00
2008,12,22,06,43,0.00
2008,12,22,06,44,0.00
2008,12,22,06,45,0.00
2008,12,22,06,46,0.00
2008,12,22,06,47,0.00
2008,12,22,06,48,0.00
2008,12,22,06,49,0.00
2008,12,22,06,50,0.00
2008,12,22,06,51,0.00
2008,12,22,06,52,0.00
2008,12,22,06,53,0.00
2008,12,22,06,54,0.00
2008,12,22,06,55,0.00
2008,12,22,06,56,0.00
2008,12,22,06,57,0.00
2008,12,22,06,58,0.00
2008,12,22,06,59,0.00
2008,12,22,07,00,0.00
2008,12,22,07,01,0.00
2008,12,22,07,02,0.00
2008,12,22,07,03,0.00
2008,12,22,07,04,0.00
2008,12,22,07,05,0.00
2008,12,22,07,06,0.00
2008,12,22,07,07,0.00
2008,12,22,07,08,0.00
2008,12,22,07,09,0.00
2008,12,22,07,10,0.00
2008,12,22,07,11,0.00
2008,12,22,07,12,0.00
2008,12,22,07,13,0.00
2008,12,22,07,14,0.00
2008,12,22,07,15,0.00
2008,12,22,07,16,0.00
2008,12,22,07,17,0.00
2008,12,22,07,18,0.00
2008,12,22,07,19,0.00
2008,12,22,07,20,0.00
2008,12,22,07,21,0.00
2008,12,22,07,22,0.00
2008,12,22,07,23,0.00
2008,12,22,07,24,0.00
2008,12,22,07,25,0.00
2008,12,22,07,26,0.00
2008,12,22,07,27,0.00
2008,12,22,07,28,0.00
2008,12,22,07,29,0.00
2008,12,22,07,30,0.00
2008,12,22,07,31,0.00
2008,12,22,07,32,0.00
2008,12,22,07,33,0.00
2008,12,22,07,34,0.00
2008,12,22,07,35,0.00
2008,12,22,07,36,0.00
2008,12,22,07,37,0.00
2008,12,22,07,38,0.00
2008,12,22,07,39,0.00
2008,12,22,07,40,0.00
2008,12,22,07,41,0.00
2008,12,22,07,42,0.00
2008,12,22,07,43,0.00
2008,12,22,07,44,0.00
2008,12,22,07,45,0.00
2008,12,22,07,46,0.00
2008,12,22,07,47,0.00
2008,12,22,07,48,0.00
2008,12,22,07,49,0.00
2008,12,22,07,50,0.00
2008,12,22,07,51,0.00
2008,12,22,07,52,0.00
2008,12,22,07,53,0.00
2008,12,22,07,54,0.00
2008,12,22,07,55,0.00
2008,12,22,07,56,0.00
2008,12,22,07,57,0.00
2008,12,22,07,58,0.00
2008,12,22,07,59,0.00
2008,12,22,08,00,0.00
2008,12,22,08,01,0.00
2008,12,22,08,02,0.00
2008,12,22,08,03,0.00
2008,12,22,08,04,0.00
2008,12,22,08,05,0.00
2008,12,22,08,06,3.60
2008,12,22,08,07,5.00
2008,12,22,08,08,5.00
2008,12,22,08,09,5.00
2008,12,22,08,10,5.00
2008,12,22,08,11,6.80
2008,12,22,08,12,7.00
2008,12,22,08,13,7.00
2008,12,22,08,14,7.00
2008,12,22,08,15,7.00
2008,12,22,08,16,7.00
2008,12,22,08,17,7.00
2008,12,22,08,18,7.40
2008,12,22,08,19,9.00
2008,12,22,08,20,9.00
2008,12,22,08,21,9.00
2008,12,22,08,22,9.70
2008,12,22,08,23,11.00
2008,12,22,08,24,11.00
2008,12,22,08,25,11.50
2008,12,22,08,26,12.00
2008,12,22,08,27,12.00
2008,12,22,08,28,12.00
2008,12,22,08,29,13.40
2008,12,22,08,30,14.00
2008,12,22,08,31,14.00
2008,12,22,08,32,14.00
2008,12,22,08,33,14.00
2008,12,22,08,34,15.70
2008,12,22,08,35,16.00
2008,12,22,08,36,16.00
2008,12,22,08,37,16.00
2008,12,22,08,38,16.20
2008,12,22,08,39,18.00
2008,12,22,08,40,17.70
2008,12,22,08,41,16.00
2008,12,22,08,42,16.50
2008,12,22,08,43,18.00
2008,12,22,08,44,17.30
2008,12,22,08,45,16.00
2008,12,22,08,46,16.00
2008,12,22,08,47,16.00
2008,12,22,08,48,16.00
2008,12,22,08,49,16.00
2008,12,22,08,50,16.00
2008,12,22,08,51,16.00
2008,12,22,08,52,14.70
2008,12,22,08,53,14.00
2008,12,22,08,54,14.00
2008,12,22,08,55,14.00
2008,12,22,08,56,12.40
2008,12,22,08,57,12.00
2008,12,22,08,58,12.00
2008,12,22,08,59,12.00
2008,12,22,09,00,14.00
2008,12,22,09,01,14.00
2008,12,22,09,02,14.30
2008,12,22,09,03,16.00
2008,12,22,09,04,16.00
2008,12,22,09,05,16.00
2008,12,22,09,06,15.40
2008,12,22,09,07,13.30
2008,12,22,09,08,12.00
2008,12,22,09,09,11.60
2008,12,22,09,10,11.00
2008,12,22,09,11,11.00
2008,12,22,09,12,11.00
2008,12,22,09,13,11.00
2008,12,22,09,14,11.00
2008,12,22,09,15,11.00
2008,12,22,09,16,11.00
2008,12,22,09,17,11.00
2008,12,22,09,18,11.00
2008,12,22,09,19,11.00
2008,12,22,09,20,11.00
2008,12,22,09,21,11.90
2008,12,22,09,22,12.00
2008,12,22,09,23,12.00
2008,12,22,09,24,12.00
2008,12,22,09,25,12.20
2008,12,22,09,26,14.00
2008,12,22,09,27,14.00
2008,12,22,09,28,14.50
2008,12,22,09,29,16.00
2008,12,22,09,30,16.00
2008,12,22,09,31,16.80
2008,12,22,09,32,18.00
2008,12,22,09,33,18.00
2008,12,22,09,34,18.50
2008,12,22,09,35,19.00
2008,12,22,09,36,19.00
2008,12,22,09,37,20.30
2008,12,22,09,38,21.00
2008,12,22,09,39,21.00
2008,12,22,09,40,21.00
2008,12,22,09,41,21.00
2008,12,22,09,42,21.00
2008,12,22,09,43,21.00
2008,12,22,09,44,21.00
2008,12,22,09,45,21.00
2008,12,22,09,46,21.00
2008,12,22,09,47,21.20
2008,12,22,09,48,23.00
2008,12,22,09,49,23.00
2008,12,22,09,50,23.00
2008,12,22,09,51,23.00
2008,12,22,09,52,23.00
2008,12,22,09,53,23.70
2008,12,22,09,54,25.00
2008,12,22,09,55,25.00
2008,12,22,09,56,25.50
2008,12,22,09,57,26.00
2008,12,22,09,58,27.00
2008,12,22,09,59,28.00
2008,12,22,10,00,28.00
2008,12,22,10,01,28.00
2008,12,22,10,02,29.50
2008,12,22,10,03,31.60
2008,12,22,10,04,30.30
2008,12,22,10,05,30.00
2008,12,22,10,06,30.00
2008,12,22,10,07,30.00
2008,12,22,10,08,30.00
2008,12,22,10,09,30.00
2008,12,22,10,10,30.00
2008,12,22,10,11,30.00
2008,12,22,10,12,30.30
2008,12,22,10,13,32.00
2008,12,22,10,14,32.80
2008,12,22,10,15,35.50
2008,12,22,10,16,37.70
2008,12,22,10,17,40.10
2008,12,22,10,18,43.80
2008,12,22,10,19,50.50
2008,12,22,10,20,57.00
2008,12,22,10,21,58.00
2008,12,22,10,22,66.10
2008,12,22,10,23,68.70
2008,12,22,10,24,65.70
2008,12,22,10,25,63.60
2008,12,22,10,26,50.40
2008,12,22,10,27,48.70
2008,12,22,10,28,53.00
2008,12,22,10,29,63.30
2008,12,22,10,30,71.60
2008,12,22,10,31,74.00
2008,12,22,10,32,82.60
2008,12,22,10,33,90.20
2008,12,22,10,34,93.40
2008,12,22,10,35,97.00
2008,12,22,10,36,95.80
2008,12,22,10,37,92.80
2008,12,22,10,38,98.00
2008,12,22,10,39,100.10
2008,12,22,10,40,104.00
2008,12,22,10,41,104.00
2008,12,22,10,42,113.90
2008,12,22,10,43,115.00
2008,12,22,10,44,111.80
2008,12,22,10,45,123.10
2008,12,22,10,46,122.60
2008,12,22,10,47,120.00
2008,12,22,10,48,120.00
2008,12,22,10,49,146.20
2008,12,22,10,50,155.00
2008,12,22,10,51,157.70
2008,12,22,10,52,138.30
2008,12,22,10,53,135.00
2008,12,22,10,54,128.00
2008,12,22,10,55,139.00
2008,12,22,10,56,124.30
2008,12,22,10,57,138.20
2008,12,22,10,58,148.00
2008,12,22,10,59,152.80
2008,12,22,11,00,163.00
2008,12,22,11,01,134.80
2008,12,22,11,02,135.80
2008,12,22,11,03,144.10
2008,12,22,11,04,163.90
2008,12,22,11,05,193.20
2008,12,22,11,06,217.80
2008,12,22,11,07,246.30
2008,12,22,11,08,233.40
2008,12,22,11,09,226.40
2008,12,22,11,10,252.10
2008,12,22,11,11,264.00
2008,12,22,11,12,290.10
2008,12,22,11,13,337.00
2008,12,22,11,14,377.00
2008,12,22,11,15,409.70
2008,12,22,11,16,419.50
2008,12,22,11,17,422.00
2008,12,22,11,18,431.00
2008,12,22,11,19,431.00
2008,12,22,11,20,431.00
2008,12,22,11,21,431.00
2008,12,22,11,22,453.80
2008,12,22,11,23,559.20
2008,12,22,11,24,590.00
2008,12,22,11,25,584.70
2008,12,22,11,26,595.30
2008,12,22,11,27,579.10
2008,12,22,11,28,537.30
2008,12,22,11,29,456.00
2008,12,22,11,30,356.20
2008,12,22,11,31,264.30
2008,12,22,11,32,218.10
2008,12,22,11,33,197.00
2008,12,22,11,34,181.70
2008,12,22,11,35,171.70
2008,12,22,11,36,163.10
2008,12,22,11,37,156.60
2008,12,22,11,38,155.10
2008,12,22,11,39,151.40
2008,12,22,11,40,148.10
2008,12,22,11,41,146.00
2008,12,22,11,42,146.50
2008,12,22,11,43,150.70
2008,12,22,11,44,149.00
2008,12,22,11,45,149.70
2008,12,22,11,46,153.00
2008,12,22,11,47,153.50
2008,12,22,11,48,155.00
2008,12,22,11,49,153.60
2008,12,22,11,50,151.80
2008,12,22,11,51,153.90
2008,12,22,11,52,155.50
2008,12,22,11,53,158.20
2008,12,22,11,54,165.70
2008,12,22,11,55,178.80
2008,12,22,11,56,191.50
2008,12,22,11,57,183.80
2008,12,22,11,58,179.00
2008,12,22,11,59,179.00
2008,12,22,12,00,179.00
2008,12,22,12,01,196.00
2008,12,22,12,02,188.90
2008,12,22,12,03,181.00
2008,12,22,12,04,194.20
2008,12,22,12,05,178.50
2008,12,22,12,06,175.30
2008,12,22,12,07,186.00
2008,12,22,12,08,191.10
2008,12,22,12,09,213.20
2008,12,22,12,10,229.00
2008,12,22,12,11,264.00
2008,12,22,12,12,280.60
2008,12,22,12,13,323.30
2008,12,22,12,14,324.60
2008,12,22,12,15,338.50
2008,12,22,12,16,388.00
2008,12,22,12,17,396.00
2008,12,22,12,18,398.00
2008,12,22,12,19,355.70
2008,12,22,12,20,327.40
2008,12,22,12,21,384.10
2008,12,22,12,22,401.00
2008,12,22,12,23,401.00
2008,12,22,12,24,282.90
2008,12,22,12,25,211.80
2008,12,22,12,26,265.00
2008,12,22,12,27,218.40
2008,12,22,12,28,224.60
2008,12,22,12,29,388.80
2008,12,22,12,30,396.00
2008,12,22,12,31,362.50
2008,12,22,12,32,195.00
2008,12,22,12,33,195.00
2008,12,22,12,34,179.30
2008,12,22,12,35,177.40
2008,12,22,12,36,220.00
2008,12,22,12,37,202.00
2008,12,22,12,38,197.50
2008,12,22,12,39,172.60
2008,12,22,12,40,155.00
2008,12,22,12,41,218.20
2008,12,22,12,42,274.20
2008,12,22,12,43,288.10
2008,12,22,12,44,286.10
2008,12,22,12,45,262.30
2008,12,22,12,46,242.80
2008,12,22,12,47,217.20
2008,12,22,12,48,194.10
2008,12,22,12,49,171.00
2008,12,22,12,50,151.00
2008,12,22,12,51,211.50
2008,12,22,12,52,125.30
2008,12,22,12,53,154.80
2008,12,22,12,54,114.00
2008,12,22,12,55,114.00
2008,12,22,12,56,114.00
2008,12,22,12,57,155.60
2008,12,22,12,58,210.60
2008,12,22,12,59,170.10
2008,12,22,13,00,123.10
2008,12,22,13,01,117.50
2008,12,22,13,02,153.50
2008,12,22,13,03,168.30
2008,12,22,13,04,164.90
2008,12,22,13,05,137.00
2008,12,22,13,06,79.50
2008,12,22,13,07,64.10
2008,12,22,13,08,63.30
2008,12,22,13,09,66.60
2008,12,22,13,10,75.10
2008,12,22,13,11,85.50
2008,12,22,13,12,86.00
2008,12,22,13,13,76.00
2008,12,22,13,14,65.00
2008,12,22,13,15,65.00
2008,12,22,13,16,65.80
2008,12,22,13,17,71.90
2008,12,22,13,18,82.70
2008,12,22,13,19,98.30
2008,12,22,13,20,113.30
2008,12,22,13,21,114.00
2008,12,22,13,22,151.80
2008,12,22,13,23,191.80
2008,12,22,13,24,178.30
2008,12,22,13,25,203.50
2008,12,22,13,26,161.80
2008,12,22,13,27,127.10
2008,12,22,13,28,132.10
2008,12,22,13,29,134.00
2008,12,22,13,30,119.00
2008,12,22,13,31,100.40
2008,12,22,13,32,87.20
2008,12,22,13,33,76.60
2008,12,22,13,34,70.30
2008,12,22,13,35,69.00
2008,12,22,13,36,65.20
2008,12,22,13,37,65.40
2008,12,22,13,38,75.60
2008,12,22,13,39,100.50
2008,12,22,13,40,128.00
2008,12,22,13,41,138.80
2008,12,22,13,42,169.00
2008,12,22,13,43,169.00
2008,12,22,13,44,169.00
2008,12,22,13,45,207.20
2008,12,22,13,46,255.00
2008,12,22,13,47,255.00
2008,12,22,13,48,180.30
2008,12,22,13,49,111.70
2008,12,22,13,50,108.30
2008,12,22,13,51,100.20
2008,12,22,13,52,88.90
2008,12,22,13,53,84.40
2008,12,22,13,54,78.20
2008,12,22,13,55,74.30
2008,12,22,13,56,76.70
2008,12,22,13,57,77.00
2008,12,22,13,58,77.00
2008,12,22,13,59,91.00
2008,12,22,14,00,98.00
2008,12,22,14,01,100.30
2008,12,22,14,02,119.30
2008,12,22,14,03,115.40
2008,12,22,14,04,111.60
2008,12,22,14,05,105.40
2008,12,22,14,06,101.30
2008,12,22,14,07,99.20
2008,12,22,14,08,95.20
2008,12,22,14,09,88.00
2008,12,22,14,10,84.00
2008,12,22,14,11,89.20
2008,12,22,14,12,83.40
2008,12,22,14,13,77.00
2008,12,22,14,14,77.00
2008,12,22,14,15,76.30
2008,12,22,14,16,73.20
2008,12,22,14,17,68.20
2008,12,22,14,18,67.00
2008,12,22,14,19,63.40
2008,12,22,14,20,64.90
2008,12,22,14,21,65.00
2008,12,22,14,22,61.90
2008,12,22,14,23,59.80
2008,12,22,14,24,58.00
2008,12,22,14,25,58.00
2008,12,22,14,26,58.30
2008,12,22,14,27,60.40
2008,12,22,14,28,62.20
2008,12,22,14,29,62.70
2008,12,22,14,30,62.00
2008,12,22,14,31,62.40
2008,12,22,14,32,63.00
2008,12,22,14,33,64.10
2008,12,22,14,34,66.20
2008,12,22,14,35,67.00
2008,12,22,14,36,67.00
2008,12,22,14,37,63.60
2008,12,22,14,38,62.00
2008,12,22,14,39,60.60
2008,12,22,14,40,60.00
2008,12,22,14,41,61.80
2008,12,22,14,42,62.90
2008,12,22,14,43,66.80
2008,12,22,14,44,67.00
2008,12,22,14,45,69.90
2008,12,22,14,46,69.00
2008,12,22,14,47,68.60
2008,12,22,14,48,64.70
2008,12,22,14,49,62.50
2008,12,22,14,50,59.00
2008,12,22,14,51,54.40
2008,12,22,14,52,48.40
2008,12,22,14,53,42.40
2008,12,22,14,54,39.60
2008,12,22,14,55,38.10
2008,12,22,14,56,37.00
2008,12,22,14,57,37.00
2008,12,22,14,58,38.20
2008,12,22,14,59,39.00
2008,12,22,15,00,42.30
2008,12,22,15,01,44.00
2008,12,22,15,02,42.40
2008,12,22,15,03,42.00
2008,12,22,15,04,42.00
2008,12,22,15,05,40.20
2008,12,22,15,06,40.00
2008,12,22,15,07,40.00
2008,12,22,15,08,39.00
2008,12,22,15,09,38.90
2008,12,22,15,10,37.00
2008,12,22,15,11,37.00
2008,12,22,15,12,36.20
2008,12,22,15,13,32.20
2008,12,22,15,14,30.00
2008,12,22,15,15,28.30
2008,12,22,15,16,24.20
2008,12,22,15,17,23.00
2008,12,22,15,18,22.10
2008,12,22,15,19,21.00
2008,12,22,15,20,19.80
2008,12,22,15,21,18.40
2008,12,22,15,22,18.00
2008,12,22,15,23,18.00
2008,12,22,15,24,18.00
2008,12,22,15,25,18.00
2008,12,22,15,26,18.00
2008,12,22,15,27,18.00
2008,12,22,15,28,18.00
2008,12,22,15,29,18.00
2008,12,22,15,30,18.00
2008,12,22,15,31,16.00
2008,12,22,15,32,14.00
2008,12,22,15,33,14.00
2008,12,22,15,34,13.70
2008,12,22,15,35,12.00
2008,12,22,15,36,12.00
2008,12,22,15,37,12.00
2008,12,22,15,38,12.00
2008,12,22,15,39,12.00
2008,12,22,15,40,12.00
2008,12,22,15,41,11.60
2008,12,22,15,42,11.00
2008,12,22,15,43,11.00
2008,12,22,15,44,11.00
2008,12,22,15,45,11.00
2008,12,22,15,46,9.60
2008,12,22,15,47,9.00
2008,12,22,15,48,9.00
2008,12,22,15,49,7.50
2008,12,22,15,50,7.00
2008,12,22,15,51,7.00
2008,12,22,15,52,7.00
2008,12,22,15,53,7.00
2008,12,22,15,54,7.00
2008,12,22,15,55,7.00
2008,12,22,15,56,6.80
2008,12,22,15,57,5.00
2008,12,22,15,58,5.00
2008,12,22,15,59,5.00
2008,12,22,16,00,3.80
2008,12,22,16,01,0.00
2008,12,22,16,02,0.00
2008,12,22,16,03,0.00
2008,12,22,16,04,0.00
2008,12,22,16,05,0.00
2008,12,22,16,06,0.00
2008,12,22,16,07,0.00
2008,12,22,16,08,0.00
2008,12,22,16,09,0.00
2008,12,22,16,10,0.00
2008,12,22,16,11,0.00
2008,12,22,16,12,0.00
2008,12,22,16,13,0.00
2008,12,22,16,14,0.00
2008,12,22,16,15,0.00
2008,12,22,16,16,0.00
2008,12,22,16,17,0.00
2008,12,22,16,18,0.00
2008,12,22,16,19,0.00
2008,12,22,16,20,0.00
2008,12,22,16,21,0.00
2008,12,22,16,22,0.00
2008,12,22,16,23,0.00
2008,12,22,16,24,0.00
2008,12,22,16,25,0.00
2008,12,22,16,26,0.00
2008,12,22,16,27,0.00
2008,12,22,16,28,0.00
2008,12,22,16,29,0.00
2008,12,22,16,30,0.00
2008,12,22,16,31,0.00
2008,12,22,16,32,0.00
2008,12,22,16,33,0.00
2008,12,22,16,34,0.00
2008,12,22,16,35,0.00
2008,12,22,16,36,0.00
2008,12,22,16,37,0.00
2008,12,22,16,38,0.00
2008,12,22,16,39,0.00
2008,12,22,16,40,0.00
2008,12,22,16,41,0.00
2008,12,22,16,42,0.00
2008,12,22,16,43,0.00
2008,12,22,16,44,0.00
2008,12,22,16,45,0.00
2008,12,22,16,46,0.00
2008,12,22,16,47,0.00
2008,12,22,16,48,0.00
2008,12,22,16,49,0.00
2008,12,22,16,50,0.00
2008,12,22,16,51,0.00
2008,12,22,16,52,0.00
2008,12,22,16,53,0.00
2008,12,22,16,54,0.00
2008,12,22,16,55,0.00
2008,12,22,16,56,0.00
2008,12,22,16,57,0.00
2008,12,22,16,58,0.00
2008,12,22,16,59,0.00
2008,12,22,17,00,0.00
2008,12,22,17,01,0.00
2008,12,22,17,02,0.00
2008,12,22,17,03,0.00
2008,12,22,17,04,0.00
2008,12,22,17,05,0.00
2008,12,22,17,06,0.00
2008,12,22,17,07,0.00
2008,12,22,17,08,0.00
2008,12,22,17,09,0.00
2008,12,22,17,10,0.00
2008,12,22,17,11,0.00
2008,12,22,17,12,0.00
2008,12,22,17,13,0.00
2008,12,22,17,14,0.00
2008,12,22,17,15,0.00
2008,12,22,17,16,0.00
2008,12,22,17,17,0.00
2008,12,22,17,18,0.00
2008,12,22,17,19,0.00
2008,12,22,17,20,0.00
2008,12,22,17,21,0.00
2008,12,22,17,22,0.00
2008,12,22,17,23,0.00
2008,12,22,17,24,0.00
2008,12,22,17,25,0.00
2008,12,22,17,26,0.00
2008,12,22,17,27,0.00
2008,12,22,17,28,0.00
2008,12,22,17,29,0.00
2008,12,22,17,30,0.00
2008,12,22,17,31,0.00
2008,12,22,17,32,0.00
2008,12,22,17,33,0.00
2008,12,22,17,34,0.00
2008,12,22,17,35,0.00
2008,12,22,17,36,0.00
2008,12,22,17,37,0.00
2008,12,22,17,38,0.00